Location: Antioch Baptist Church
(32.6696°N, 85.7327°W)
Time: 00:38:09
(UTC+00:00)

Cosmos 1825 - Pass Details

Date: 14 July 2020
Orbit: 502 x 509 km, 82.5° (Epoch: 12 August)

Event Time Altitude Azimuth Distance (km) Brightness Sun altitude
Exits shadow 03:25:57 28° 22° (NNE) 986 3.8 -25.9°
Drops below altitude 10° 03:27:51 10° 13° (NNE) 1,730 5.3 -26.1°
Sets 03:30:00 0° 11° (N) 2,619 6.4 -26.4°
